Location: LDNL
(36.4545°S, 141.6685°E)
Time: 20:00:14
(UTC+10:00)

Courier 1B Rocket - Pass Details

Date: 11 August 2022
Orbit: 920 x 1202 km, 28.2° (Epoch: 23 September)

Event Time Altitude Azimuth Distance (km) Brightness Sun altitude
Exits shadow 04:17:51 27° 23° (NNE) 2,086 6.7 -37.2°
Drops below altitude 10° 04:23:51 10° 75° (ENE) 3,059 8.3 -36.0°
Sets 04:27:04 0° 86° (E) 3,983 9.2 -35.4°
